Theta_e
292 294 296 299 300 301 302 301 301 300 301 300 298 295 293 292 292 291 291 292 292 292 291 291 290 289 289 288 289 292 288 287 287 294 296 296 292 295 291 291 288 288 290
290 292 294 297 299 300 302 302 302 302 303 300 297 294 291 289 288 288 288 289 290 290 289 288 288 287 287 286 286 286 286 285 286 287 290 289 293 288 290 286 286 284 286
290 291 293 295 297 298 302 303 303 300 297 294 292 290 289 287 286 286 286 287 288 288 288 287 287 286 286 285 284 283 284 282 284 284 286 280 279 283 289 284 283 283 283
291 292 293 293 294 295 298 299 297 295 294 293 290 289 287 285 284 284 285 285 286 286 287 286 286 285 285 284 284 284 282 282 280 282 284 281 280 277 277 280 281 282 282
291 291 293 294 292 291 291 294 294 292 291 291 291 288 285 285 285 284 284 284 284 285 285 284 284 284 284 283 282 282 282 282 280 280 280 280 279 279 276 275 276 279 281
290 291 291 290 289 288 288 288 289 289 290 289 287 286 285 284 283 283 282 283 283 283 283 283 282 282 282 282 281 281 280 280 280 280 280 279 277 277 276 275 275 276 278
289 289 288 288 287 286 286 286 287 286 287 287 286 285 285 284 283 283 283 282 282 281 281 281 281 281 281 281 281 280 280 279 278 279 278 279 279 279 279 277 275 274 277
289 288 287 287 286 286 285 285 286 285 285 286 285 285 285 285 284 284 283 282 281 281 281 280 280 280 280 280 280 279 279 279 278 278 278 279 279 279 279 278 276 273 275
288 286 286 286 286 285 285 285 285 284 285 285 285 285 284 284 284 283 282 282 281 282 280 280 279 279 279 279 279 278 277 277 277 277 277 277 278 278 277 278 277 275 271
286 286 285 285 286 286 284 284 285 285 284 284 285 284 283 284 283 283 281 281 280 280 279 279 279 278 278 278 278 277 277 276 276 277 276 276 277 276 276 276 276 275 273
287 286 286 285 285 285 284 284 284 283 283 284 283 283 283 283 282 282 281 280 280 279 279 279 278 278 277 277 276 276 276 276 276 276 276 276 276 275 274 274 274 274 273
288 287 286 285 285 284 283 283 284 283 283 283 283 282 282 282 281 281 280 279 279 279 278 278 278 277 277 277 276 276 276 275 276 276 276 275 277 274 274 273 273 272 272
287 286 286 285 284 284 284 284 283 283 283 283 282 281 281 281 280 280 279 279 278 278 277 277 277 277 276 276 276 276 276 276 276 276 275 275 275 274 273 273 272 272 274
288 287 286 285 285 284 284 283 283 283 283 282 282 281 280 280 280 279 279 278 278 277 277 276 276 276 276 276 276 276 276 276 276 276 276 275 274 274 273 273 273 274 273
288 287 287 286 285 284 284 284 283 283 283 282 282 281 281 280 279 279 279 278 278 277 276 276 276 275 275 276 275 275 275 275 275 275 276 275 275 277 277 275 274 273 272
289 289 288 287 285 285 284 284 284 283 283 282 282 282 281 281 280 280 279 278 277 277 276 275 274 274 276 279 280 277 275 276 275 274 275 275 274 275 278 278 278 278 273
290 289 288 287 286 285 285 284 284 284 283 282 282 282 282 281 280 280 279 277 277 275 274 274 274 273 274 280 280 280 276 275 274 274 274 275 275 274 274 275 277 277 278
290 290 290 289 287 286 285 286 284 283 283 282 282 282 282 281 279 278 278 277 276 274 274 273 273 273 273 279 280 280 276 274 274 274 274 274 274 274 274 273 273 274 275
292 292 291 290 289 286 285 285 283 283 282 282 281 281 282 281 279 278 277 276 275 273 273 272 271 271 271 279 280 279 274 274 273 274 274 274 273 276 278 275 273 272 273
291 291 290 289 289 288 286 284 283 281 281 282 282 282 282 281 279 279 276 273 274 274 273 273 271 271 269 277 279 279 274 269 272 272 274 276 276 278 279 276 271 268 270
288 288 289 290 289 286 285 283 281 281 282 281 281 280 280 280 279 277 274 271 272 272 270 271 271 269 270 269 278 279 275 272 269 270 271 273 277 278 278 279 274 269 274
285 284 285 284 282 283 284 281 281 281 279 278 278 277 277 277 275 274 269 270 271 271 270 268 267 268 269 272 275 278 279 278 270 269 272 273 277 278 278 278 277 277 274
282 282 283 281 280 278 282 280 278 277 276 275 274 273 271 273 272 271 270 269 270 270 269 268 268 267 269 269 275 277 278 278 276 274 274 277 278 279 277 274 275 272 264
279 276 278 277 275 273 275 274 275 274 273 272 269 269 271 269 268 272 271 270 269 268 267 266 266 263 266 268 268 270 270 274 275 275 272 274 276 275 274 268 269 268 265
276 276 276 274 274 272 270 269 271 272 271 270 269 269 268 268 267 267 266 268 265 268 262 261 262 261 262 266 271 268 264 264 269 269 261 262 265 264 265 263 263 264 264
273 273 271 272 269 270 268 268 270 272 272 270 269 268 267 265 266 265 264 273 273 275 276 276 268 265 272 275 276 277 277 278 278 273 270 265 266 265 265 262 262 263 263
Wind_Speed
9 8 7 8 8 7 9 9 9 8 7 7 6 6 6 7 7 7 8 9 8 9 9 7 8 7 8 6 6 3 7 10 6 4 4 4 7 7 6 4 8 11 9
9 8 8 7 8 8 10 10 10 10 5 5 6 5 5 6 7 6 8 8 8 8 9 8 7 6 8 9 7 6 3 5 8 3 2 4 4 4 5 6 7 7 7
16 11 9 8 8 9 11 13 11 8 8 11 10 9 8 5 6 5 6 6 8 8 8 8 7 7 7 7 6 5 6 4 5 9 4 3 1 4 3 4 6 10 5
11 13 13 9 9 7 7 10 10 10 10 12 11 13 8 9 3 5 5 6 7 8 8 8 8 8 6 7 6 5 5 4 4 3 5 5 3 2 5 4 5 7 6
18 17 16 12 7 7 7 7 9 8 9 9 9 9 10 9 7 6 9 8 7 7 7 7 7 7 6 7 8 7 7 5 4 4 3 3 4 4 2 4 5 4 5
15 14 12 11 8 6 7 7 9 7 8 9 9 13 16 13 10 8 8 6 5 5 6 7 7 6 6 7 6 6 7 6 6 4 4 3 2 1 2 2 4 5 4
16 16 17 15 12 10 8 7 8 8 9 12 11 11 13 12 13 11 9 10 6 4 5 6 6 5 5 6 6 6 6 5 5 4 3 3 2 1 1 0 3 3 3
15 17 17 15 13 12 10 9 10 8 9 11 11 10 10 8 8 8 8 6 6 6 6 6 6 6 6 6 6 5 5 5 5 6 4 2 3 2 1 1 1 4 3
17 17 14 14 14 12 13 13 11 9 10 11 9 9 8 9 9 9 7 6 6 6 7 7 7 6 6 6 6 5 5 5 3 4 4 2 2 2 2 1 0 0 4
14 15 15 14 12 12 9 10 10 12 11 10 10 10 10 9 9 9 9 8 6 6 7 7 6 6 6 6 7 5 4 5 2 2 3 2 1 2 1 1 1 1 2
15 15 13 13 12 11 11 12 11 11 11 10 7 10 9 9 9 9 8 8 7 7 7 6 7 7 6 6 6 6 5 5 3 2 2 1 1 1 2 2 1 1 2
15 14 13 14 14 14 12 13 12 12 11 10 9 9 9 9 9 9 9 8 8 6 7 6 6 6 6 6 6 5 4 4 2 1 1 3 1 3 2 2 3 2 3
12 13 14 16 16 15 14 14 13 13 11 11 11 9 10 10 9 9 9 8 8 8 7 6 7 6 6 6 4 5 4 3 3 3 4 4 4 4 3 2 3 3 5
15 15 15 16 15 15 15 13 13 12 12 12 12 12 12 11 10 9 9 9 8 8 7 7 7 6 6 6 5 5 3 3 3 4 5 5 4 5 5 4 4 5 4
17 19 19 17 16 15 14 13 13 13 12 12 12 12 10 8 8 9 8 7 7 7 7 7 6 6 5 4 5 5 4 4 5 5 5 5 6 9 9 4 4 5 5
19 18 15 15 16 16 16 14 14 14 13 13 12 10 10 10 10 10 9 9 8 7 7 7 7 6 4 10 10 7 4 4 4 5 5 5 6 9 12 12 14 12 6
20 19 17 15 15 16 15 16 14 12 13 12 10 11 11 12 11 10 10 10 10 6 7 7 7 7 6 11 12 12 5 5 6 6 5 6 5 5 5 11 14 14 16
16 17 16 14 13 13 14 13 13 15 15 12 11 11 13 12 9 11 11 9 7 9 7 7 7 6 6 13 14 14 5 5 7 7 7 7 7 6 7 8 9 9 6
13 13 13 14 14 16 15 15 13 13 13 14 13 13 12 12 12 12 12 9 8 6 7 4 7 7 6 14 14 12 5 7 8 7 6 6 7 11 15 10 8 5 5
11 11 11 10 15 14 15 15 14 13 14 13 14 12 13 13 14 13 11 5 5 8 6 7 8 8 7 15 15 12 3 5 6 5 7 12 12 16 17 8 4 4 6
8 8 11 13 10 11 13 14 12 14 13 8 9 10 11 12 11 9 6 6 6 5 7 8 6 7 7 8 16 16 7 6 5 6 6 6 15 16 16 18 3 5 10
7 7 10 8 7 11 12 10 12 8 8 9 9 9 9 7 7 9 5 5 7 8 7 5 4 3 4 10 15 18 19 15 7 7 7 7 16 17 18 13 8 15 12
8 6 11 10 6 6 8 10 6 8 8 8 7 7 6 6 7 8 8 5 6 7 7 6 6 3 4 5 17 19 18 19 12 6 10 17 19 20 9 7 12 7 0
7 4 9 8 5 3 4 4 6 6 7 6 5 5 7 6 5 4 6 6 7 6 4 5 5 2 3 4 4 5 5 11 11 12 7 10 13 12 9 2 4 3 2
5 5 8 7 6 4 4 3 5 7 6 6 5 5 4 5 4 2 4 3 1 5 4 3 4 4 4 5 9 8 4 5 10 9 2 2 3 3 2 2 3 3 3
4 5 4 7 4 5 4 3 4 7 8 6 5 5 5 4 4 4 1 5 7 10 12 11 8 4 10 10 12 15 19 20 20 10 11 7 7 7 5 4 4 3 4
Wind_Direction
165 162 163 152 143 144 136 140 136 138 134 124 113 96 100 91 76 65 56 62 67 67 77 76 73 67 69 59 43 51 41 23 4 54 36 38 58 67 54 57 51 34 21
164 162 163 165 166 159 152 149 151 155 156 121 112 112 109 88 93 85 69 60 68 70 79 84 72 60 74 59 48 40 54 44 21 77 53 13 338 28 53 51 42 24 15
166 164 170 176 174 167 160 157 161 143 124 119 113 108 100 85 88 67 74 57 74 73 78 76 79 72 76 74 63 53 59 83 18 35 100 53 327 329 345 36 44 20 7
163 164 171 174 176 182 144 135 135 135 136 137 134 138 134 130 113 118 108 87 71 77 78 82 82 78 73 74 72 53 59 77 57 16 37 56 109 67 330 349 16 1 354
167 170 172 166 163 158 148 138 138 136 141 138 139 129 119 119 126 119 109 95 82 78 82 83 83 82 82 75 75 63 61 60 83 61 12 27 41 54 89 288 324 338 322
168 161 151 141 149 155 149 145 139 148 145 137 136 140 141 142 138 136 123 117 105 95 86 88 83 82 81 81 83 80 71 69 74 70 59 70 79 39 41 307 307 306 285
160 158 157 162 160 164 164 156 151 146 142 143 141 146 147 146 144 143 139 134 127 120 116 103 100 98 102 98 93 88 82 72 79 78 71 69 67 67 27 316 293 296 293
167 166 164 163 163 167 169 162 159 149 144 143 149 148 145 146 143 145 143 136 136 135 127 114 117 113 111 105 98 92 95 93 81 83 64 69 54 43 41 345 354 309 297
168 166 163 165 167 172 175 168 158 152 153 150 145 144 139 144 148 141 132 135 126 131 128 133 127 117 111 112 109 95 95 95 88 91 74 65 49 36 26 39 350 234 319
165 169 170 170 172 175 168 164 162 160 153 145 149 150 149 145 140 133 137 141 140 132 139 140 133 125 121 118 112 108 107 105 80 100 70 48 5 9 15 359 326 348 228
174 174 174 169 166 167 173 169 162 154 154 153 144 145 148 141 135 138 144 149 137 144 150 147 144 142 127 120 113 118 126 112 122 74 64 335 317 270 316 326 298 261 237
175 175 169 164 170 177 173 173 168 163 164 158 150 149 145 144 147 153 154 148 147 152 158 157 146 137 132 125 131 144 138 148 152 214 266 262 284 296 284 270 272 249 247
169 169 172 177 180 180 180 176 174 169 163 158 155 154 157 157 163 161 156 153 149 157 164 160 148 148 143 138 148 164 174 174 207 231 245 264 265 277 257 248 267 248 281
177 177 183 187 184 182 179 177 177 171 166 162 163 167 169 168 167 160 163 161 161 158 169 164 152 159 151 152 170 183 188 215 232 246 251 257 253 258 258 260 255 262 257
189 191 189 187 181 179 179 179 176 171 170 168 174 179 169 160 157 164 169 159 161 173 172 152 157 167 161 169 185 189 197 223 246 252 253 249 248 251 266 270 244 244 258
200 197 189 184 185 181 182 177 177 175 170 180 181 170 167 168 174 171 169 168 170 174 171 161 170 177 182 195 201 185 199 222 241 257 256 251 252 266 275 277 284 281 278
194 189 186 180 183 186 177 182 175 164 175 179 173 174 173 178 183 172 173 179 181 169 176 171 179 192 195 205 211 214 201 216 231 241 254 255 245 241 247 275 284 286 287
186 181 178 175 170 164 169 167 167 173 182 181 176 177 179 184 169 174 184 180 172 187 175 190 193 192 206 213 218 222 206 226 238 243 246 251 258 240 254 255 258 262 258
176 174 170 164 159 165 167 168 171 176 180 183 182 182 183 176 178 188 187 187 178 181 188 176 191 201 207 218 222 222 195 226 239 243 247 243 252 256 270 272 271 258 278
160 161 161 155 162 170 162 163 173 173 182 183 188 177 180 184 185 190 185 173 181 194 188 202 199 203 207 219 226 230 193 226 241 245 254 252 252 254 261 271 232 268 286
140 135 152 159 155 139 151 165 164 185 188 162 158 169 176 183 187 177 162 166 176 167 194 208 201 206 198 216 231 235 225 228 231 230 241 241 258 267 272 273 193 226 293
119 124 124 126 132 145 147 149 178 171 141 145 160 172 174 174 162 171 163 163 170 193 203 204 225 217 193 207 235 239 242 240 221 223 235 236 258 270 271 276 286 300 319
129 116 131 128 114 121 139 161 175 145 147 152 170 169 149 160 160 165 172 163 178 194 205 209 227 217 199 218 243 242 246 252 252 240 237 252 262 268 274 287 292 305 61
123 106 111 116 130 137 116 109 145 137 140 151 145 144 165 160 156 157 167 177 185 195 191 198 225 192 198 220 219 239 257 270 262 267 278 269 262 235 235 191 279 265 229
103 123 135 141 159 130 125 134 135 136 139 132 139 141 133 160 146 120 163 167 162 171 165 195 177 188 233 232 231 224 230 235 243 251 256 207 247 236 233 244 236 235 250
124 109 99 116 139 132 130 147 145 148 144 147 158 165 157 153 149 145 89 227 205 218 223 217 190 220 227 245 253 261 265 267 247 236 242 220 214 217 218 222 235 230 239